CST,Max TemperatureF,Mean TemperatureF,Min TemperatureF,Max Dew PointF,MeanDew PointF,Min DewpointF,Max Humidity, Mean Humidity, Min Humidity, Max Sea Level PressureIn, Mean Sea Level PressureIn, Min Sea Level PressureIn, Max VisibilityMiles, Mean VisibilityMiles, Min VisibilityMiles, Max Wind SpeedMPH, Mean Wind SpeedMPH, Max Gust SpeedMPH,PrecipitationIn, CloudCover, Events, WindDirDegrees
2011-11-1,75,59,43,46,39,27,70,54,38,29.98,29.91,29.84,10,10,10,18,10,23,0.00,2,,189
2011-11-2,52,45,38,40,37,34,92,73,54,30.19,30.10,29.94,10,7,2,25,13,36,0.81,8,Rain-Thunderstorm,9
2011-11-3,53,43,33,38,30,28,86,64,41,30.30,30.22,30.11,10,10,10,21,12,28,0.00,3,,10
2011-11-4,56,41,26,36,29,24,92,65,38,30.33,30.24,30.12,10,10,8,20,8,22,0.00,3,,144
2011-11-5,56,49,41,43,41,33,96,79,61,30.11,29.96,29.79,10,9,4,24,16,30,0.00,4,,155
2011-11-6,59,50,40,45,38,31,77,57,36,30.10,29.88,29.71,10,10,10,32,14,41,0.00,3,,237
2011-11-7,60,47,33,41,33,27,89,59,28,30.24,30.17,30.09,10,10,5,20,5,23,0.39,4,Rain,74
2011-11-8,46,41,35,41,39,34,96,86,76,30.09,30.04,29.97,10,6,2,24,16,31,0.50,8,Rain-Snow,34
2011-11-9,49,41,33,36,30,21,100,73,46,30.18,30.06,29.96,10,6,1,24,15,35,0.94,4,Rain-Snow,329
2011-11-10,43,37,30,25,22,20,69,56,43,30.22,30.16,30.07,10,10,10,22,11,31,0.00,2,,280
2011-11-11,51,40,29,35,28,19,70,60,49,30.06,29.82,29.73,10,10,10,17,9,22,0.00,2,,199
2011-11-12,60,48,35,38,34,30,89,65,40,29.72,29.57,29.39,10,10,10,20,10,26,0.00,5,,187
2011-11-13,55,48,41,41,35,30,77,58,38,29.62,29.43,29.24,10,10,10,31,12,37,0.00,6,,229
2011-11-14,62,51,40,36,31,26,76,52,27,29.72,29.62,29.55,10,10,10,23,8,28,T,5,,219
2011-11-15,58,45,32,33,27,18,70,47,24,30.05,29.80,29.64,10,10,10,20,10,26,0.00,2,,284
2011-11-16,44,35,26,17,13,9,63,44,24,30.29,30.21,30.06,10,10,10,18,8,22,0.00,2,,305
2011-11-17,47,34,21,23,16,10,65,47,28,30.32,30.19,29.99,10,10,10,22,9,26,0.00,0,,226
2011-11-18,57,47,36,34,29,23,64,51,38,29.97,29.80,29.69,10,10,10,30,16,38,0.00,3,,199
2011-11-19,59,44,28,44,32,21,82,69,56,30.14,29.77,29.56,10,10,9,28,15,33,0.00,7,,248
2011-11-20,38,32,25,24,22,19,81,68,54,30.36,30.30,30.20,10,10,10,15,8,20,0.00,6,,21
2011-11-21,45,35,24,34,30,21,89,77,65,30.31,30.23,30.14,10,8,2,8,3,10,0.00,6,,60
2011-11-22,46,43,39,39,38,37,92,81,70,30.17,30.07,29.98,7,3,1,10,5,14,0.04,8,Rain,23
2011-11-23,49,43,37,40,38,36,92,82,71,30.22,30.18,30.14,8,5,2,15,8,18,0.00,4,,189
2011-11-24,67,52,37,45,39,35,100,72,44,30.13,30.01,29.87,10,7,2,23,14,30,0.00,2,,183
2011-11-25,56,51,45,49,44,39,83,71,59,29.86,29.78,29.71,10,8,6,22,14,29,0.01,7,Rain,199
2011-11-26,55,47,38,52,40,28,96,80,64,30.10,29.87,29.71,10,8,4,31,18,43,0.09,8,Rain,296
2011-11-27,38,35,32,27,25,23,72,68,64,30.25,30.20,30.12,10,10,10,24,13,33,0.00,8,,354
2011-11-28,40,35,29,27,25,23,85,72,59,30.22,30.15,30.07,10,10,10,20,5,28,0.00,4,,317
2011-11-29,43,34,24,27,17,7,72,48,24,30.29,30.22,30.13,10,10,10,22,13,29,0.00,1,,354
2011-11-30,50,35,19,16,12,7,68,44,19,30.20,30.08,29.98,10,10,10,21,8,25,0.00,5,,198